Home   Weather   Currie   Past weeks

Flag for Australia Past Weather in Currie, Tasmania, Australia — Yesterday and Last 2 Weeks

Now
58 °F

Passing clouds.


Feels Like: 55 °F
Forecast: 56 / 61 °F
Wind: 16 mph from West

Location: King Island Airport

Current Time: Apr 29, 2017 at 4:11:35 am

Latest Report: Apr 29, 2017 at 3:00 am


Visibility: N/A

Pressure: 30.09 "Hg

Humidity: 92%

Dew Point: 56 °F

Location of CurrieLocation

Past Weather in Currie — Graph

°F

Currie Temperature Yesterday

Maximum temperature yesterday: 61 °F (at 11:00 am)
Minimum temperature yesterday: 56 °F (at 12:00 am)
Average temperature yesterday: 59 °F

High & Low Weather Summary for the Past Weeks

 TemperatureHumidityPressure
High71 °F (Apr 20, 1:00 pm)100% (Apr 19, 12:00 am)30.37 "Hg (Apr 19, 12:00 am)
Low43 °F (Apr 27, 3:00 am)46% (Apr 14, 10:00 am)29.58 "Hg (Apr 25, 10:00 pm)
Average58 °F83%30.13 "Hg
* Reported Apr 14 2:00 am — Apr 29 2:00 am, Currie, Weather by CustomWeather, © 2017

Note: Actual official high and low records may vary slightly from our data, if they occured in-between our weather recording intervals... More about our weather records

Advertising

Currie Weather History for the Previous 24 Hours

Scroll right to see more
 ConditionsComfort  
Time TempWeatherWind HumidityBarometerVisibility
2:00 am
Sat, Apr 29
57 °FCool.18 mph98%30.10 "HgN/A
1:00 am58 °FCool.17 mph96%30.10 "HgN/A
12:00 am59 °FOvercast.18 mph88%30.10 "HgN/A
11:00 pm
Fri, Apr 28
59 °FCool.17 mph97%30.10 "HgN/A
10:00 pm58 °FCool.22 mph97%30.11 "HgN/A
9:00 pm59 °FRain showers. Low clouds.18 mph90%30.11 "HgN/A
8:00 pm59 °FCool.20 mph91%30.11 "HgN/A
7:00 pm59 °FCool.17 mph94%30.11 "HgN/A
6:00 pm60 °FOvercast.21 mph90%30.10 "HgN/A
5:00 pm60 °FCool.21 mph90%30.10 "HgN/A
4:00 pm59 °FCool.20 mph90%30.10 "HgN/A
3:00 pm61 °FOvercast.20 mph92%30.10 "Hg5 mi
2:00 pm60 °FCool.18 mph91%30.11 "HgN/A
1:00 pm59 °FCool.17 mph92%30.13 "HgN/A
12:00 pm59 °FOvercast.20 mph89%30.15 "HgN/A
11:00 am61 °FCool.20 mph87%30.16 "HgN/A
10:00 am59 °FCool.16 mph92%30.16 "HgN/A
9:00 am59 °FOvercast.16 mph88%30.15 "HgN/A
8:00 am58 °FCool.17 mph96%30.14 "HgN/A
7:00 am57 °FCool.16 mph96%30.12 "HgN/A
6:00 am57 °FLow clouds.14 mph96%30.11 "HgN/A
5:00 am58 °FCool.15 mph85%30.11 "HgN/A
4:00 am56 °FCool.18 mph95%30.11 "HgN/A
Weather by CustomWeather, © 2017

See weather overviewHow to use our weather pages